Location: Arroyo Grande
(40.2671°N, 4.2512°W)
Time: 15:18:29
(UTC+00:00)

Cosmos 1386 Rocket - Pass Details

Date: 03 February 2023
Orbit: 929 x 1005 km, 83.0° (Epoch: 21 March)

Event Time Altitude Azimuth Distance (km) Brightness Sun altitude
Rises 19:18:51 0° 354° (N) 3,590 7.5 -19.6°
Reaches altitude 10° 19:21:21 10° 357° (N) 2,643 6.8 -20.0°
Maximum altitude 19:27:22 72° 82° (E) 981 4.3 -21.2°
Drops below altitude 10° 19:33:23 10° 166° (SSE) 2,650 6.7 -22.3°
Sets 19:35:53 0° 169° (S) 3,599 7.4 -22.8°
